| time (UTC) | temp C | wind direction | speed KPH | gust KPH | rain 1hr cm | rain 24hr cm | rain mn cm | humidity % | barometer mb |
| 20260903221527 | 33 | 78 | 0.0 | 8.0 | 0.00 | 0.00 | 0.00 | 18 | 1000.6 |
| 20260903220025 | 33 | 60 | 1.6 | 17.7 | 0.00 | 0.00 | 0.00 | 17 | 1000.8 |
| 20260903214533 | 33 | 50 | 0.0 | 12.9 | 0.00 | 0.00 | 0.00 | 19 | 1001.0 |
| 20260903213032 | 33 | 92 | 0.0 | 4.8 | 0.00 | 0.00 | 0.00 | 19 | 1001.2 |
| 20260903211518 | 33 | 87 | 0.0 | 8.0 | 0.00 | 0.00 | 0.00 | 19 | 1001.4 |
| 20260903210016 | 32 | 65 | 0.0 | 9.7 | 0.00 | 0.00 | 0.00 | 20 | 1001.5 |
| 20260903204514 | 32 | 53 | 0.0 | 12.9 | 0.00 | 0.00 | 0.00 | 20 | 1001.8 |
| 20260903203012 | 32 | 110 | 3.2 | 14.5 | 0.00 | 0.00 | 0.00 | 19 | 1002.0 |
| 20260903201513 | 32 | 57 | 0.0 | 22.5 | 0.00 | 0.00 | 0.00 | 21 | 1002.0 |
| 20260903200009 | 32 | 134 | 0.0 | 8.0 | 0.00 | 0.00 | 0.00 | 20 | 1002.2 |
| 20260903194507 | 32 | 75 | 3.2 | 17.7 | 0.00 | 0.00 | 0.00 | 20 | 1002.3 |
| 20260903193008 | 32 | 158 | 0.0 | 8.0 | 0.00 | 0.00 | 0.00 | 20 | 1002.4 |
| 20260903191501 | 31 | 88 | 0.0 | 16.1 | 0.00 | 0.00 | 0.00 | 20 | 1002.7 |
| 20260903190058 | 31 | 98 | 0.0 | 12.9 | 0.00 | 0.00 | 0.00 | 20 | 1002.9 |
| 20260903184605 | 31 | 77 | 0.0 | 14.5 | 0.00 | 0.00 | 0.00 | 22 | 1003.0 |
| 20260903183154 | 31 | 112 | 0.0 | 16.1 | 0.00 | 0.00 | 0.00 | 21 | 1003.3 |
| 20260903181554 | 30 | 62 | 0.0 | 8.0 | 0.00 | 0.00 | 0.00 | 23 | 1003.6 |
| 20260903180052 | 30 | 71 | 0.0 | 14.5 | 0.00 | 0.00 | 0.00 | 25 | 1003.8 |
| 20260903174547 | 29 | 153 | 0.0 | 12.9 | 0.00 | 0.00 | 0.00 | 24 | 1003.9 |
| 20260903173044 | 29 | 74 | 0.0 | 11.3 | 0.00 | 0.00 | 0.00 | 24 | 1004.0 |
| 20260903171546 | 28 | 79 | 1.6 | 14.5 | 0.00 | 0.00 | 0.00 | 26 | 1004.2 |
| 20260903170047 | 28 | 107 | 1.6 | 11.3 | 0.00 | 0.00 | 0.00 | 26 | 1004.2 |
| 20260903164537 | 27 | 87 | 0.0 | 11.3 | 0.00 | 0.00 | 0.00 | 29 | 1004.3 |
| 20260903163035 | 27 | 115 | 0.0 | 9.7 | 0.00 | 0.00 | 0.00 | 29 | 1004.4 |
| 20260903161530 | 26 | 110 | 0.0 | 6.4 | 0.00 | 0.00 | 0.00 | 29 | 1004.4 |
| 20260903160027 | 26 | 86 | 0.0 | 6.4 | 0.00 | 0.00 | 0.00 | 33 | 1004.6 |
| 20260903154522 | 25 | 109 | 0.0 | 6.4 | 0.00 | 0.00 | 0.00 | 34 | 1004.6 |
| 20260903153018 | 24 | 93 | 0.0 | 0.0 | 0.00 | 0.00 | 0.00 | 37 | 1004.6 |
| 20260903151515 | 23 | 135 | 0.0 | 0.0 | 0.00 | 0.00 | 0.00 | 42 | 1004.7 |
| 20260903150015 | 21 | 228 | 0.0 | 0.0 | 0.00 | 0.00 | 0.00 | 48 | 1004.8 |
| 20260903144513 | 20 | 228 | 0.0 | 0.0 | 0.00 | 0.00 | 0.00 | 47 | 1005.0 |
| 20260903143001 | 18 | 245 | 0.0 | 0.0 | 0.00 | 0.00 | 0.00 | 53 | 1005.1 |
| 20260903141559 | 17 | 245 | 0.0 | 0.0 | 0.00 | 0.00 | 0.00 | 55 | 1005.3 |
| 20260903140100 | 15 | 232 | 0.0 | 0.0 | 0.00 | 0.00 | 0.00 | 57 | 1005.2 |
| 20260903134620 | 13 | 271 | 0.0 | 0.0 | 0.00 | 0.00 | 0.00 | 64 | 1005.2 |
| 20260903133057 | 13 | 5 | 0.0 | 0.0 | 0.00 | 0.00 | 0.00 | 65 | 1005.0 |
| 20260903131554 | 12 | 239 | 0.0 | 0.0 | 0.00 | 0.00 | 0.00 | 67 | 1004.9 |
| 20260903130105 | 12 | 245 | 0.0 | 0.0 | 0.00 | 0.00 | 0.00 | 68 | 1004.7 |
| 20260903124556 | 12 | 245 | 0.0 | 0.0 | 0.00 | 0.00 | 0.00 | 66 | 1004.5 |
| 20260903123051 | 12 | 231 | 0.0 | 0.0 | 0.00 | 0.00 | 0.00 | 67 | 1004.3 |
| 20260903120115 | 12 | 232 | 0.0 | 0.0 | 0.00 | 0.00 | 0.00 | 63 | 1004.1 |
| 20260903114600 | 12 | 232 | 0.0 | 0.0 | 0.00 | 0.00 | 0.00 | 66 | 1003.9 |
| 20260903113044 | 12 | 231 | 0.0 | 0.0 | 0.00 | 0.00 | 0.00 | 67 | 1003.8 |
| 20260903111542 | 12 | 232 | 0.0 | 0.0 | 0.00 | 0.00 | 0.00 | 66 | 1003.8 |
| 20260903110041 | 12 | 232 | 0.0 | 0.0 | 0.00 | 0.00 | 0.00 | 67 | 1003.9 |
| 20260903104540 | 13 | 232 | 0.0 | 0.0 | 0.00 | 0.00 | 0.00 | 66 | 1003.7 |
| 20260903103038 | 13 | 251 | 0.0 | 0.0 | 0.00 | 0.00 | 0.00 | 67 | 1003.7 |
| 20260903101538 | 13 | 251 | 0.0 | 0.0 | 0.00 | 0.00 | 0.00 | 66 | 1003.6 |
| 20260903100041 | 13 | 248 | 0.0 | 0.0 | 0.00 | 0.00 | 0.00 | 66 | 1003.7 |
| 20260903094534 | 13 | 248 | 0.0 | 0.0 | 0.00 | 0.00 | 0.00 | 66 | 1003.6 |
| 20260903093031 | 14 | 248 | 0.0 | 0.0 | 0.00 | 0.00 | 0.00 | 66 | 1003.7 |
| 20260903091528 | 14 | 248 | 0.0 | 0.0 | 0.00 | 0.00 | 0.00 | 67 | 1003.6 |
| 20260903090026 | 15 | 248 | 0.0 | 0.0 | 0.00 | 0.00 | 0.00 | 65 | 1003.5 |
| 20260903084523 | 15 | 248 | 0.0 | 0.0 | 0.00 | 0.00 | 0.00 | 66 | 1003.4 |
| 20260903083020 | 15 | 248 | 0.0 | 0.0 | 0.00 | 0.00 | 0.00 | 64 | 1003.5 |
| 20260903081520 | 15 | 248 | 0.0 | 0.0 | 0.00 | 0.00 | 0.00 | 65 | 1003.4 |
| 20260903080017 | 15 | 248 | 0.0 | 0.0 | 0.00 | 0.00 | 0.00 | 63 | 1003.3 |
| 20260903074515 | 16 | 221 | 0.0 | 0.0 | 0.00 | 0.00 | 0.00 | 66 | 1003.4 |
| 20260903073011 | 16 | 221 | 0.0 | 0.0 | 0.00 | 0.00 | 0.00 | 67 | 1003.6 |
| 20260903071508 | 17 | 221 | 0.0 | 0.0 | 0.00 | 0.00 | 0.00 | 66 | 1003.6 |
| 20260903070013 | 17 | 221 | 0.0 | 0.0 | 0.00 | 0.00 | 0.00 | 65 | 1003.8 |
| 20260903064503 | 17 | 221 | 0.0 | 0.0 | 0.00 | 0.00 | 0.00 | 64 | 1004.0 |
| 20260903063000 | 17 | 218 | 0.0 | 0.0 | 0.00 | 0.00 | 0.00 | 64 | 1004.0 |
| 20260903061608 | 17 | 206 | 0.0 | 0.0 | 0.00 | 0.00 | 0.00 | 64 | 1004.0 |
| 20260903060058 | 18 | 206 | 0.0 | 0.0 | 0.00 | 0.00 | 0.00 | 64 | 1003.9 |
| 20260903054602 | 18 | 206 | 0.0 | 0.0 | 0.00 | 0.00 | 0.00 | 63 | 1004.0 |
| 20260903053056 | 18 | 206 | 0.0 | 0.0 | 0.00 | 0.00 | 0.00 | 63 | 1003.8 |
| 20260903051556 | 18 | 192 | 0.0 | 0.0 | 0.00 | 0.00 | 0.00 | 62 | 1003.7 |
| 20260903050154 | 18 | 192 | 0.0 | 0.0 | 0.00 | 0.00 | 0.00 | 63 | 1003.6 |
| 20260903044558 | 18 | 61 | 0.0 | 0.0 | 0.00 | 0.00 | 0.00 | 63 | 1003.6 |
| 20260903043054 | 18 | 61 | 0.0 | 0.0 | 0.00 | 0.00 | 0.00 | 61 | 1004.5 |
| 20260903041609 | 19 | 61 | 0.0 | 0.0 | 0.00 | 0.00 | 0.00 | 57 | 1004.3 |
| 20260903040053 | 19 | 61 | 0.0 | 0.0 | 0.00 | 0.00 | 0.00 | 56 | 1004.4 |
| 20260903034552 | 20 | 61 | 0.0 | 0.0 | 0.00 | 0.00 | 0.00 | 55 | 1004.2 |
| 20260903033052 | 21 | 62 | 0.0 | 0.0 | 0.00 | 0.00 | 0.00 | 51 | 1004.2 |
| 20260903031551 | 21 | 62 | 0.0 | 0.0 | 0.00 | 0.00 | 0.00 | 48 | 1004.0 |
| 20260903030051 | 22 | 62 | 0.0 | 0.0 | 0.00 | 0.00 | 0.00 | 47 | 1003.8 |
| 20260903024551 | 23 | 315 | 0.0 | 0.0 | 0.00 | 0.00 | 0.00 | 45 | 1003.8 |
| 20260903023050 | 23 | 340 | 0.0 | 0.0 | 0.00 | 0.00 | 0.00 | 42 | 1003.9 |
| 20260903021551 | 23 | 5 | 0.0 | 0.0 | 0.00 | 0.00 | 0.00 | 39 | 1002.8 |
| 20260903020053 | 24 | 5 | 0.0 | 0.0 | 0.00 | 0.00 | 0.00 | 38 | 1002.6 |
| 20260903014610 | 24 | 316 | 0.0 | 0.0 | 0.00 | 0.00 | 0.00 | 36 | 1002.5 |
| 20260903013100 | 25 | 24 | 0.0 | 0.0 | 0.00 | 0.00 | 0.00 | 34 | 1002.3 |
| 20260903011613 | 25 | 348 | 0.0 | 0.0 | 0.00 | 0.00 | 0.00 | 34 | 1002.3 |
| 20260903010104 | 26 | 317 | 0.0 | 0.0 | 0.00 | 0.00 | 0.00 | 32 | 1002.1 |
| 20260903004547 | 26 | 11 | 0.0 | 0.0 | 0.00 | 0.00 | 0.00 | 31 | 1002.1 |
| 20260903003103 | 27 | 346 | 0.0 | 0.0 | 0.00 | 0.00 | 0.00 | 30 | 1002.0 |
| 20260903001556 | 28 | 283 | 0.0 | 9.7 | 0.00 | 0.00 | 0.00 | 29 | 1002.0 |
| 20260903000048 | 28 | 337 | 1.6 | 14.5 | 0.00 | 0.00 | 0.00 | 27 | 1002.0 |
| 20260902234546 | 29 | 5 | 0.0 | 14.5 | 0.00 | 0.00 | 0.00 | 26 | 1001.9 |
| 20260902233045 | 28 | 248 | 0.0 | 22.5 | 0.00 | 0.00 | 0.00 | 26 | 1002.1 |
| 20260902231548 | 28 | 351 | 3.2 | 17.7 | 0.00 | 0.00 | 0.00 | 28 | 1002.2 |
| 20260902230053 | 28 | 303 | 6.4 | 20.9 | 0.00 | 0.00 | 0.00 | 26 | 1002.2 |
| 20260902223045 | 31 | 194 | 0.0 | 0.0 | 0.00 | 0.00 | 0.00 | 23 | 1002.2 |